Preview of NWS' New Version of Forecast
This preview is not operational and should not be used for support decisions.

Regional Weather Roundup (RWR)

Issued by National Weather Service (NWS)

                            
000
ASUS43 KLSX 260407
RWRMO 

WEATHER SUMMARY FOR MISSOURI
NATIONAL WEATHER SERVICE SPRINGFIELD MO
1100 PM CDT SUN AUG 25 2019

NOTE: "FAIR" INDICATES FEW OR NO CLOUDS BELOW 12,000 FEET WITH NO
       SIGNIFICANT WEATHER AND/OR OBSTRUCTIONS TO VISIBILITY.
       CURRENT SKY AND/OR WEATHER CONDITIONS ARE NOT AVAILABLE FOR
       CHILLICOTHE AND FARMINGTON.

MOZ001>031-035>038-043-044-053-054-260500-
...NORTHERN AND WESTERN MISSOURI...
  
CITY           SKY/WX    TMP DP  RH WIND       PRES   REMARKS
KANSAS CTY INT CLOUDY    67  66  97 N5        29.84F                  
KANSAS C DTWN  CLOUDY    69  65  86 NW5       29.83S                  
LEE'S SUMMIT   CLOUDY    69  66  90 W7        29.83S                  
ST JOSEPH      CLOUDY    67  64  90 NE5       29.84F                  
CHILLICOTHE      N/A     68  67  96 CALM      29.83F                  
KIRKSVILLE     MOCLDY    67  66  97 E14       29.81F                  
     
$$
MOZ066>068-077>081-088>096-101>105-260500-
...SOUTHWEST MISSOURI...
  
CITY           SKY/WX    TMP DP  RH WIND       PRES   REMARKS
SPRINGFIELD    PTCLDY    72  70  93 S7        29.85S                  
JOPLIN         PTCLDY    71  70  96 CALM      29.84F                  
               
$$
MOZ032>034-039>042-045>050-055>058-069>072-260500-
...CENTRAL MISSOURI...  
  
CITY           SKY/WX    TMP DP  RH WIND       PRES   REMARKS
COLUMBIA       CLOUDY    72  70  93 W9        29.80F                  
JEFFERSON CITY RAIN      74  71  91 SW5       29.79S FOG              
ROLLA          MOCLDY    73  70  90 S12       29.84F                  
SEDALIA        CLOUDY    68  68 100 SW3       29.82F                  
WHITEMAN AFB   MOCLDY    67  67 100 SW3       29.78F                  
WARRENSBURG    CLEAR     66  64  94 CALM      29.82S                  
OSAGE BEACH    CLOUDY    73  70  90 W9        29.83F                  
               
$$
MOZ051-052-059>065-260500-
...EAST CENTRAL MISSOURI...
  
CITY           SKY/WX    TMP DP  RH WIND       PRES   REMARKS
ST LOUIS INTL  CLOUDY    73  70  90 SE10      29.85F                  
SPIRIT OF STL  CLOUDY    73  71  93 SE6       29.84F                  
ST CHARLES       N/A    N/A N/A N/A MISG      29.84F                  
                   
$$
MOZ072>076-082>087-097>100-106>115-260500-
...SOUTH CENTRAL AND SOUTHEAST MISSOURI...
  
CITY           SKY/WX    TMP DP  RH WIND       PRES   REMARKS
CAPE GIRARDEAU FAIR      75  71  87 S8        29.88R                  
FARMINGTON     CLOUDY    72  71  97 S5        29.90R                  
POPLAR BLUFF   CLOUDY    74  71  91 SE3       29.89R                  
WEST PLAINS    CLOUDY    73  70  90 S7        29.90S                  
                                       
$$